Location: Lecco
(45.8566°N, 9.3977°E)
Time: 12:51:04
(UTC+02:00)

Explorer 11/Cluster Stage 4 - Pass Details

Date: 15 August 2020
Orbit: 467 x 1258 km, 28.8° (Epoch: 24 September)

Event Time Altitude Azimuth Distance (km) Brightness Sun altitude
Rises 01:39:33 0° 252° (WSW) 4,181 - -30.1°
Reaches altitude 10° 01:43:38 10° 234° (SW) 3,230 - -30.1°
Maximum altitude 01:48:34 17° 197° (SSW) 2,673 - -30.0°
Drops below altitude 10° 01:53:21 10° 159° (SSE) 3,111 - -29.9°
Sets 01:57:11 0° 141° (SE) 3,967 - -29.8°
